Temp
61 60 60 60 60 60 60 60 60 60 61 61 61 61 61 60 59 56 54 63 64 70 71 69 70 68 65 59 60 59 44 37 43 49 53 63 61 71 76 72 75 77 76 81 86
60 60 60 60 60 59 59 59 60 60 60 60 60 60 60 60 52 57 68 70 71 71 67 64 63 65 56 56 58 52 41 45 56 58 57 61 61 67 69 68 68 74 80 83 75
59 60 60 59 59 59 59 59 59 60 60 60 60 60 60 58 54 60 71 71 71 70 66 66 65 61 52 55 55 50 47 56 60 62 63 63 62 67 65 61 67 68 73 78 75
59 59 59 59 59 59 59 59 59 60 60 59 60 60 60 54 49 64 72 71 71 68 66 64 61 53 49 49 54 49 58 59 61 64 59 59 64 65 65 64 73 73 76 77 75
58 59 58 58 58 58 58 58 58 59 59 59 60 60 56 54 58 70 73 72 69 68 65 62 58 54 48 53 56 49 55 60 61 59 59 63 61 61 63 69 73 74 74 74 73
58 58 58 58 58 58 58 57 57 58 58 60 61 60 55 50 70 71 70 69 69 64 67 63 57 60 53 52 50 56 58 58 58 58 58 58 60 61 68 73 70 71 70 71 73
58 58 58 57 58 58 58 57 57 57 59 61 62 61 54 58 73 70 69 67 70 70 67 67 66 61 56 53 58 58 51 56 57 57 56 60 57 59 68 68 67 68 71 71 72
58 58 57 57 57 58 58 57 57 58 59 62 62 57 52 71 69 67 68 69 73 73 70 72 70 61 54 56 56 50 47 39 52 58 61 58 49 62 66 64 65 67 69 72 69
58 57 57 57 57 57 57 56 58 59 60 62 55 53 54 72 71 76 74 71 73 74 71 78 65 58 56 46 40 43 36 42 49 58 58 56 52 63 66 64 64 66 65 68 69
58 57 57 57 57 57 56 57 58 58 60 66 65 53 61 66 74 76 75 75 70 68 65 61 54 48 44 41 34 38 40 44 46 56 58 54 54 61 62 63 63 66 66 65 69
58 57 57 57 57 56 53 55 56 55 55 57 59 61 67 74 78 73 76 72 69 61 51 56 45 40 46 49 52 50 47 45 52 59 53 53 54 58 61 59 59 59 61 61 66
58 57 57 57 56 56 49 55 61 64 54 65 66 67 71 73 66 71 76 63 59 52 54 48 43 53 56 56 52 50 46 46 53 58 54 53 53 58 57 59 59 61 63 61 61
57 57 57 57 56 52 55 62 68 65 50 61 68 67 67 70 65 66 71 65 58 52 52 44 51 59 56 53 51 49 47 47 48 53 55 52 49 53 59 59 61 63 62 63 66
57 56 56 54 58 56 60 68 66 65 43 57 63 68 71 67 61 73 73 64 57 50 51 50 55 55 53 50 52 43 53 52 50 47 40 52 34 47 51 54 59 63 61 62 64
57 57 56 55 53 57 67 63 62 61 32 62 64 72 68 62 63 64 71 63 52 51 48 45 49 49 47 50 52 44 53 49 47 42 41 44 37 45 52 50 55 60 62 61 63
57 57 55 55 50 59 64 63 62 43 35 56 61 59 58 61 62 64 61 62 58 49 50 49 56 52 52 54 53 52 44 42 41 37 29 39 39 42 47 50 56 59 59 63 64
56 56 52 61 59 63 62 58 41 36 57 51 51 56 54 53 56 57 52 49 39 32 36 45 48 53 55 47 51 47 36 28 27 26 29 43 40 42 50 56 58 58 60 63 65
54 54 54 63 60 61 58 49 36 51 49 58 55 54 50 53 53 52 49 43 46 42 30 32 33 48 55 47 40 38 36 25 22 20 28 38 31 38 54 60 62 64 62 61 62
53 54 57 64 64 60 52 37 38 48 56 53 51 47 46 52 50 47 47 43 47 44 32 33 36 52 52 51 47 36 29 40 33 34 29 32 39 48 54 55 56 58 58 57 57
47 50 57 68 64 57 47 41 48 58 59 56 43 48 41 46 44 43 43 50 48 48 45 39 31 47 49 49 49 42 46 29 33 25 24 30 34 36 44 47 50 52 52 54 56
49 51 65 67 62 51 40 43 53 62 60 53 47 45 45 42 43 39 43 51 52 48 45 41 34 40 45 40 36 36 32 37 36 34 25 26 31 45 45 46 48 51 51 54 56
45 47 63 64 48 44 43 51 54 58 61 57 54 50 45 44 39 41 42 47 54 50 36 39 35 31 37 48 49 43 41 40 31 30 33 29 33 53 48 49 50 52 58 54 59
42 45 61 60 39 39 47 53 56 55 55 54 50 51 48 42 36 41 46 53 52 44 38 40 33 28 31 37 42 38 42 42 41 37 31 29 33 52 51 50 53 51 54 56 56
43 42 48 49 49 42 42 46 49 58 56 56 53 50 45 43 45 39 42 49 51 50 53 43 34 33 28 34 36 34 38 41 36 30 32 34 37 46 49 46 47 48 50 53 54
45 43 45 38 44 44 43 48 47 46 54 53 47 49 46 38 38 40 45 48 50 49 43 40 32 35 36 38 40 38 38 36 33 35 31 35 36 39 43 44 44 46 49 52 52
44 45 50 44 45 45 44 43 45 48 49 46 45 49 47 38 39 39 43 43 39 43 40 40 33 36 34 41 41 38 37 33 33 33 33 34 32 43 43 45 45 46 46 46 50
51 52 49 42 43 42 41 46 45 49 51 53 50 46 44 47 50 50 51 49 44 43 38 38 35 33 31 39 38 31 33 31 32 37 32 28 37 39 37 38 41 42 43 44 46
MSLP
1020.13 1019.72 1019.30 1018.90 1018.53 1018.21 1017.92 1017.65 1017.37 1017.12 1016.83 1016.51 1016.20 1015.92 1015.56 1015.17 1014.53 1014.15 1013.76 1012.86 1012.61 1012.14 1011.78 1011.48 1010.94 1010.89 1010.97 1011.35 1011.11 1011.35 1012.55 1012.75 1011.80 1010.87 1009.54 1008.52 1007.85 1006.28 1005.91 1005.41 1004.97 1004.71 1004.69 1003.00 1001.67
1020.03 1019.59 1019.17 1018.74 1018.35 1018.01 1017.74 1017.48 1017.18 1016.91 1016.64 1016.33 1016.02 1015.69 1015.33 1014.96 1014.66 1013.74 1012.60 1012.39 1012.24 1011.99 1011.81 1011.77 1011.54 1011.39 1011.51 1011.42 1011.41 1011.73 1012.33 1011.97 1011.06 1010.18 1009.36 1008.47 1007.81 1006.59 1006.05 1005.51 1004.93 1004.36 1004.27 1004.13 1005.21
1019.97 1019.48 1019.04 1018.63 1018.22 1017.84 1017.54 1017.25 1016.98 1016.73 1016.47 1016.16 1015.79 1015.42 1015.08 1014.76 1014.31 1012.99 1012.32 1012.20 1012.08 1011.97 1012.01 1012.00 1011.77 1011.86 1011.73 1011.49 1011.38 1011.49 1011.67 1010.87 1010.11 1009.21 1008.57 1008.20 1007.49 1006.63 1005.91 1005.73 1005.39 1005.09 1004.34 1004.43 1005.33
1019.95 1019.42 1018.96 1018.53 1018.12 1017.71 1017.37 1017.09 1016.79 1016.52 1016.28 1015.99 1015.53 1015.08 1014.67 1014.58 1013.84 1012.32 1012.03 1011.93 1011.86 1011.91 1011.93 1011.74 1011.66 1011.80 1012.09 1012.02 1011.58 1011.53 1010.79 1010.37 1009.68 1008.81 1008.62 1008.11 1007.13 1006.32 1005.75 1005.50 1005.07 1005.23 1004.78 1004.26 1004.14
1019.87 1019.33 1018.84 1018.39 1017.94 1017.52 1017.15 1016.86 1016.61 1016.39 1016.14 1015.84 1015.44 1014.96 1014.56 1014.07 1012.72 1011.66 1011.70 1011.57 1011.67 1011.63 1011.69 1011.71 1011.77 1012.11 1012.32 1012.14 1011.63 1011.22 1010.95 1010.24 1009.69 1009.01 1008.31 1007.54 1007.09 1006.41 1005.37 1005.10 1004.75 1004.57 1005.24 1004.70 1004.37
1019.74 1019.18 1018.63 1018.15 1017.71 1017.29 1016.93 1016.59 1016.37 1016.16 1015.91 1015.60 1015.32 1015.07 1014.70 1013.39 1011.21 1011.21 1011.33 1011.63 1011.52 1011.48 1011.29 1011.21 1011.65 1011.79 1011.98 1012.23 1012.26 1011.42 1010.79 1010.04 1009.21 1008.61 1007.94 1007.56 1006.93 1006.39 1004.82 1004.21 1004.74 1004.44 1004.72 1004.77 1004.28
1019.63 1019.00 1018.44 1017.89 1017.43 1017.03 1016.60 1016.23 1016.07 1015.93 1015.69 1015.44 1015.29 1015.12 1014.57 1012.31 1010.97 1011.06 1011.31 1010.99 1010.83 1011.03 1011.12 1010.87 1010.96 1011.59 1012.05 1012.33 1011.73 1011.65 1011.04 1010.03 1009.15 1008.48 1007.85 1007.65 1006.90 1005.92 1004.63 1004.75 1004.48 1004.36 1003.39 1004.47 1004.10
1019.51 1018.87 1018.30 1017.71 1017.24 1016.83 1016.39 1015.96 1015.73 1015.67 1015.46 1015.31 1015.25 1015.11 1013.73 1011.11 1010.96 1011.28 1010.99 1010.72 1010.41 1010.28 1010.56 1010.44 1010.45 1011.12 1011.81 1012.06 1012.07 1011.97 1011.54 1010.77 1009.10 1008.54 1007.61 1007.93 1006.84 1004.80 1004.99 1004.99 1004.29 1004.19 1003.71 1002.87 1003.81
1019.28 1018.64 1018.08 1017.55 1017.08 1016.64 1016.06 1015.47 1015.21 1015.13 1015.17 1015.15 1015.23 1014.77 1012.84 1010.81 1010.69 1009.91 1010.04 1010.23 1009.84 1009.65 1009.81 1009.86 1010.50 1011.19 1011.67 1012.39 1012.93 1012.40 1012.08 1010.92 1009.51 1008.03 1007.68 1007.53 1006.05 1005.15 1004.74 1004.83 1004.18 1003.76 1003.62 1002.85 1002.49
1019.11 1018.47 1017.83 1017.29 1016.81 1016.34 1015.64 1015.00 1014.83 1014.87 1014.92 1014.78 1014.65 1014.65 1012.22 1010.71 1009.80 1009.37 1009.20 1009.49 1009.63 1009.80 1010.06 1010.25 1010.90 1011.51 1012.13 1012.95 1013.02 1012.39 1011.69 1010.58 1009.67 1007.94 1007.38 1006.91 1005.83 1005.14 1005.03 1004.61 1003.92 1003.56 1003.17 1003.00 1002.43
1018.93 1018.22 1017.55 1017.01 1016.51 1016.10 1015.42 1014.94 1015.01 1014.76 1014.41 1013.84 1013.28 1012.68 1011.29 1010.03 1009.35 1008.91 1008.65 1009.05 1009.31 1009.95 1010.43 1010.42 1011.33 1011.80 1011.70 1011.63 1011.45 1011.36 1010.93 1009.93 1009.01 1008.09 1007.70 1006.71 1005.53 1004.91 1004.79 1004.37 1003.94 1003.45 1003.03 1002.83 1002.29
1018.76 1017.95 1017.21 1016.51 1016.17 1015.88 1016.13 1015.27 1014.03 1013.63 1013.04 1012.12 1011.71 1011.44 1010.53 1009.91 1009.57 1008.41 1008.24 1009.12 1009.45 1010.07 1010.35 1011.17 1011.11 1010.68 1010.41 1010.47 1010.47 1010.32 1010.02 1009.08 1007.96 1007.51 1007.24 1006.42 1004.57 1004.37 1004.39 1004.09 1003.57 1003.17 1002.73 1002.30 1002.08
1018.57 1017.74 1016.85 1016.01 1015.43 1015.54 1015.26 1014.12 1012.92 1012.79 1013.25 1011.66 1010.78 1010.15 1009.94 1009.50 1009.27 1008.27 1008.19 1008.52 1009.34 1009.93 1010.53 1010.84 1010.09 1009.86 1009.85 1009.57 1009.45 1009.38 1009.20 1008.62 1007.71 1007.06 1006.76 1006.41 1003.57 1004.29 1003.51 1003.47 1003.00 1002.35 1001.91 1001.65 1001.40
1018.35 1017.55 1016.84 1015.73 1015.22 1015.29 1014.31 1013.13 1012.71 1012.83 1013.46 1011.77 1010.33 1009.60 1009.53 1009.40 1009.31 1009.29 1009.22 1009.66 1009.99 1010.76 1010.66 1010.40 1009.44 1009.22 1008.95 1008.93 1008.89 1008.32 1008.70 1008.27 1007.79 1007.58 1006.98 1006.83 1004.13 1003.60 1003.69 1002.73 1002.29 1001.92 1001.67 1001.25 1000.91
1017.98 1017.10 1016.60 1016.20 1016.03 1015.14 1013.47 1012.85 1012.69 1013.02 1013.37 1011.27 1010.63 1009.84 1010.22 1010.45 1010.34 1009.84 1009.84 1009.77 1010.85 1011.25 1011.31 1010.93 1009.93 1009.09 1008.59 1008.48 1008.80 1008.69 1008.78 1008.55 1008.23 1007.89 1007.44 1007.07 1006.42 1000.07 1002.65 1001.97 1001.99 1001.54 1001.11 1000.70 1000.41
1017.27 1016.72 1016.41 1015.98 1015.95 1014.00 1013.03 1012.91 1012.89 1013.84 1012.96 1011.86 1011.44 1011.13 1010.77 1010.92 1010.85 1010.42 1010.48 1010.45 1011.10 1011.58 1011.49 1010.93 1009.28 1008.88 1008.13 1008.42 1008.85 1009.25 1009.55 1009.19 1008.41 1008.61 1007.75 1006.86 1006.35 999.55 1002.13 1001.28 1000.75 1000.51 1000.34 999.94 999.82
1016.85 1015.81 1016.01 1015.49 1014.52 1013.12 1013.11 1013.54 1014.21 1014.22 1013.35 1013.05 1012.51 1012.15 1011.81 1011.78 1011.50 1011.35 1011.50 1011.63 1012.28 1012.72 1012.17 1011.11 1009.92 1009.23 1008.71 1009.23 1009.34 1009.81 1010.51 1010.54 1009.67 1009.15 1006.91 1006.23 1005.08 1001.58 1001.36 1000.55 1000.09 999.97 999.44 999.25 999.13
1016.77 1015.63 1015.25 1014.23 1013.37 1013.50 1014.00 1014.46 1014.82 1014.76 1014.01 1013.48 1013.01 1012.62 1012.67 1012.45 1012.23 1012.28 1012.29 1012.48 1012.68 1013.13 1013.02 1012.45 1010.49 1009.88 1009.19 1009.71 1010.00 1010.19 1010.64 1010.99 1010.16 1009.13 1007.93 1006.73 1004.58 1001.87 1000.61 999.66 998.99 998.78 998.63 998.48 998.46
1016.64 1015.64 1015.06 1013.19 1012.96 1013.80 1014.81 1015.61 1015.45 1014.74 1013.85 1013.30 1013.08 1012.79 1013.00 1013.06 1013.13 1012.95 1012.86 1012.67 1012.51 1013.09 1013.83 1013.17 1011.37 1009.79 1010.05 1009.07 1009.61 1009.54 1009.90 1009.64 1009.99 1009.46 1008.37 1006.08 1003.68 1001.62 1000.17 999.73 999.43 998.31 998.49 998.45 998.04
1018.05 1016.91 1015.21 1012.85 1013.14 1014.31 1015.51 1016.27 1015.36 1014.37 1013.61 1013.18 1013.46 1013.37 1013.27 1013.06 1013.28 1013.37 1012.73 1012.20 1012.20 1012.63 1013.13 1013.27 1011.57 1009.88 1009.35 1009.37 1008.25 1008.80 1009.14 1009.90 1010.17 1009.04 1007.47 1005.28 1003.43 1001.69 1000.40 999.95 999.49 998.97 998.68 998.18 997.75
1018.27 1017.03 1014.26 1012.93 1013.31 1015.06 1016.50 1016.11 1015.00 1014.04 1013.49 1013.16 1013.17 1013.40 1013.66 1013.51 1013.49 1013.25 1012.97 1011.95 1011.56 1011.83 1012.36 1012.79 1012.84 1009.95 1009.91 1008.89 1008.15 1008.50 1008.68 1009.05 1009.48 1008.90 1007.56 1005.13 1002.25 1000.46 1000.09 999.83 999.51 998.99 998.59 998.15 997.33
1019.97 1018.08 1014.68 1013.39 1015.22 1016.61 1017.05 1016.19 1015.24 1014.01 1013.08 1012.92 1012.91 1013.22 1013.57 1013.53 1013.39 1013.24 1012.42 1011.87 1011.26 1011.55 1012.26 1012.82 1012.29 1010.75 1009.37 1007.11 1007.80 1008.05 1008.19 1008.77 1008.79 1007.92 1006.84 1005.35 1000.49 999.61 999.61 999.80 999.44 999.17 998.75 998.47 997.41
1021.51 1019.01 1015.59 1015.26 1017.63 1018.42 1017.69 1016.59 1015.39 1014.35 1013.61 1013.22 1013.38 1013.41 1013.44 1013.72 1013.36 1012.49 1011.79 1011.15 1011.17 1011.51 1011.84 1012.28 1012.18 1011.11 1009.29 1007.97 1007.69 1007.71 1007.83 1008.09 1007.97 1007.52 1006.00 1005.17 1001.08 1000.11 999.81 999.73 999.39 999.49 998.97 998.53 997.37
1022.11 1020.56 1018.59 1018.15 1018.67 1019.05 1018.56 1017.10 1015.81 1014.69 1013.94 1013.68 1013.38 1013.40 1013.55 1013.59 1013.24 1012.41 1011.68 1011.05 1010.74 1010.82 1010.91 1011.99 1012.11 1011.39 1010.41 1009.09 1008.76 1008.33 1007.98 1008.29 1008.47 1007.43 1005.87 1004.22 1001.61 1001.34 1000.97 1000.67 1000.50 1000.15 999.45 998.91 998.03
1022.06 1021.73 1020.99 1020.64 1019.94 1019.51 1019.15 1017.63 1016.37 1015.14 1014.35 1013.87 1013.56 1013.75 1013.68 1013.13 1012.70 1012.24 1011.57 1010.26 1010.19 1010.59 1011.53 1011.89 1011.85 1011.04 1010.10 1008.98 1008.17 1007.75 1007.52 1008.09 1008.09 1007.39 1006.36 1004.17 1003.07 1002.33 1002.18 1001.64 1001.29 1000.97 1000.42 999.39 998.55
1022.23 1021.96 1021.34 1021.05 1020.51 1019.69 1018.70 1017.65 1016.87 1015.90 1015.44 1014.27 1014.15 1013.57 1013.17 1013.17 1013.18 1011.99 1011.33 1010.62 1010.64 1011.10 1011.62 1011.97 1011.15 1010.19 1008.95 1007.59 1007.07 1006.74 1007.11 1007.97 1007.88 1007.30 1006.27 1005.13 1003.12 1002.92 1002.65 1002.32 1001.71 1001.14 1000.95 1000.12 999.19
1022.49 1021.95 1021.73 1020.93 1020.41 1020.01 1019.05 1018.10 1017.47 1016.50 1014.92 1014.39 1014.05 1013.51 1012.78 1012.28 1012.09 1011.15 1010.34 1009.94 1010.19 1010.58 1011.47 1011.77 1011.26 1010.11 1007.85 1007.01 1006.47 1006.13 1006.83 1007.90 1007.55 1006.99 1006.49 1004.98 1003.60 1003.63 1003.28 1002.86 1002.09 1001.24 1001.17 1000.81 999.63
Wind_Speed
18 17 17 17 16 16 15 14 14 14 14 15 14 15 15 15 17 2 2 4 3 7 9 7 4 5 3 3 2 3 3 2 4 4 6 10 8 8 5 7 6 7 7 15 16
19 19 18 17 17 16 15 15 15 15 15 15 15 14 14 15 2 3 4 4 2 6 4 5 7 9 3 3 2 4 4 6 7 6 9 9 7 17 9 10 4 14 15 17 17
21 20 19 18 18 17 16 15 15 16 15 15 15 14 13 10 2 1 7 6 7 2 2 3 6 2 3 4 3 3 6 9 12 13 11 11 8 5 6 5 5 9 11 8 4
21 20 20 19 18 17 16 16 16 16 16 15 15 14 15 2 3 3 11 11 9 3 4 3 4 3 3 4 3 4 7 7 10 10 5 7 4 8 7 5 6 5 9 7 10
21 21 20 19 18 17 16 15 15 15 15 14 12 13 4 4 6 6 11 11 5 2 3 4 6 6 5 6 9 3 5 10 8 8 7 4 7 6 13 7 5 9 3 9 9
21 22 21 19 18 17 16 14 13 13 13 12 8 9 2 2 2 9 10 5 7 2 4 2 1 4 2 4 3 6 14 15 7 10 6 5 8 6 20 16 5 10 6 6 10
21 21 21 20 18 17 15 14 11 12 12 9 6 3 2 9 4 9 9 7 6 6 4 3 2 4 2 9 6 12 12 15 9 6 8 5 12 15 18 11 13 10 17 6 9
22 21 21 21 18 17 16 15 14 12 10 5 3 1 6 6 3 5 6 8 9 9 5 8 6 4 3 3 8 8 5 5 7 5 9 7 18 25 12 11 19 11 13 14 6
22 21 20 21 19 17 17 17 15 11 7 5 1 2 9 10 4 12 8 8 5 5 5 5 5 5 2 2 6 4 6 9 11 4 9 8 19 12 11 11 17 15 9 13 9
23 22 21 19 18 16 18 13 2 5 3 5 4 3 6 3 5 6 6 10 7 5 2 3 2 2 3 5 8 7 8 7 8 13 15 13 18 13 8 9 15 17 12 9 12
24 23 21 19 16 13 9 3 6 4 1 6 6 4 13 10 9 6 7 3 3 2 5 5 2 7 13 14 17 16 19 21 20 17 10 18 21 17 9 8 9 9 11 8 10
26 25 22 20 16 10 1 1 5 6 9 8 12 13 17 10 8 12 4 5 6 8 5 4 8 14 14 15 16 20 21 23 24 20 18 16 25 19 6 9 8 11 13 10 6
25 25 24 23 20 2 2 6 5 5 2 8 4 4 4 3 7 11 4 3 7 5 6 7 12 12 13 12 13 13 12 14 19 9 9 14 30 17 16 8 9 11 9 10 13
26 24 22 27 2 4 5 5 3 6 5 7 1 3 8 7 4 12 10 9 9 7 8 11 8 11 14 16 13 19 11 17 20 15 13 7 24 19 9 19 17 16 13 11 14
28 25 21 8 3 4 7 4 1 6 5 10 7 3 9 7 5 8 7 6 7 7 4 8 16 15 10 9 4 7 14 12 8 9 8 10 10 24 11 17 16 17 15 13 13
32 25 13 4 1 8 8 8 5 6 3 5 4 10 10 7 12 5 4 3 1 3 3 12 16 5 6 3 4 5 6 8 4 4 12 8 14 24 13 14 17 15 12 13 12
32 28 5 2 5 4 6 5 7 6 7 8 7 8 10 11 21 8 11 13 0 6 8 13 6 5 4 4 2 2 3 5 4 0 11 4 14 19 8 10 13 14 17 18 14
34 24 5 5 5 5 5 7 8 8 2 4 6 9 4 12 11 8 16 13 1 3 2 4 10 5 2 10 9 10 8 6 6 3 8 1 9 8 10 14 17 17 13 11 12
24 5 3 7 5 4 7 6 2 5 6 5 4 5 3 9 6 8 13 7 4 5 3 5 9 16 20 22 4 6 4 7 6 12 10 5 7 11 15 12 11 16 8 10 10
4 5 5 6 4 6 7 3 4 6 10 3 4 3 8 11 8 8 5 7 5 4 7 6 16 11 11 7 10 11 6 2 3 5 6 6 8 9 5 4 7 8 5 8 9
4 5 6 8 5 7 4 5 5 14 15 5 5 6 7 9 6 4 6 17 8 8 11 6 8 11 9 7 7 2 2 3 4 4 4 5 7 8 8 7 8 8 9 9 9
4 3 5 7 7 2 3 7 10 11 14 4 4 4 5 8 5 9 12 8 12 2 2 2 4 8 11 22 11 10 10 8 5 5 6 4 14 6 9 5 6 9 8 6 8
5 4 4 7 4 4 7 9 6 13 8 5 4 5 5 5 10 6 12 4 9 5 6 7 4 6 7 6 5 0 1 6 9 4 11 7 9 3 5 8 9 9 9 11 7
3 5 7 5 2 1 5 7 7 10 6 6 15 5 9 11 8 9 5 6 8 10 9 8 2 7 7 13 10 19 19 14 11 7 14 20 29 14 14 7 9 13 14 14 11
2 2 1 5 7 10 6 8 12 9 4 8 4 8 16 12 5 5 16 22 13 2 4 4 5 7 13 21 21 22 24 7 7 7 10 17 20 13 13 9 8 12 13 14 15
2 3 3 4 7 7 6 5 9 13 14 9 9 14 12 4 4 20 18 17 6 3 3 3 6 8 15 21 17 18 8 3 5 9 14 18 24 11 9 11 13 15 12 14 17
3 3 1 4 4 6 5 9 19 17 12 16 16 13 7 6 15 17 17 16 8 5 6 2 5 4 9 12 20 8 8 2 10 11 14 18 18 9 16 21 21 22 15 13 16
Wind_Direction
354 352 350 347 345 343 342 341 340 339 339 337 334 334 329 326 318 100 238 221 213 317 312 297 333 303 99 247 255 89 51 300 279 307 268 309 315 307 280 315 321 349 347 345 159
351 349 348 345 343 340 339 338 337 337 339 338 333 331 329 331 302 254 232 162 244 317 4 11 325 356 359 241 255 118 137 230 216 247 272 279 281 300 324 324 322 331 353 7 23
348 346 345 343 340 337 335 335 335 337 340 340 334 329 326 327 335 327 180 209 229 254 253 303 277 236 298 21 269 236 209 245 268 254 252 266 282 261 293 302 292 305 320 332 142
345 344 342 340 337 334 331 332 333 336 340 342 336 332 324 238 136 204 198 222 236 250 309 320 350 31 341 329 291 278 249 246 271 270 290 272 248 286 237 251 270 295 298 306 318
342 341 340 337 333 329 327 327 328 331 335 341 337 336 4 13 249 205 203 233 255 242 264 329 13 1 356 301 336 238 322 317 295 273 251 282 294 257 283 240 303 308 343 302 296
340 340 338 335 332 328 324 320 318 323 328 329 336 330 10 327 228 176 201 223 254 240 266 16 314 306 274 320 340 303 311 304 309 305 298 302 288 345 281 288 309 299 279 249 282
340 339 337 335 332 327 320 312 310 313 319 328 353 328 28 238 220 189 188 217 208 207 249 238 206 71 323 321 298 307 316 316 302 292 281 351 308 263 270 302 285 274 284 238 253
341 340 337 334 332 328 317 307 302 302 302 308 342 328 256 255 183 202 213 276 242 244 212 235 213 197 182 275 333 313 313 324 280 323 279 124 267 267 268 261 270 262 270 280 214
342 340 338 336 332 328 314 299 296 288 268 262 32 66 281 314 221 225 202 235 249 266 222 225 137 199 323 14 351 317 261 271 293 283 265 177 262 284 268 247 262 265 245 272 278
341 340 336 334 331 326 312 301 292 312 190 203 258 335 282 263 250 233 223 225 249 276 302 209 76 191 345 86 260 260 278 277 277 301 301 286 276 282 264 249 252 261 250 262 278
339 340 335 333 330 326 345 8 10 358 111 212 216 244 282 272 258 250 217 227 269 222 223 253 146 231 244 222 240 254 261 269 267 282 279 289 283 283 272 267 259 257 268 232 259
336 337 334 329 324 320 274 33 241 232 313 238 237 240 251 266 284 263 178 199 190 223 255 349 256 247 247 252 245 249 258 269 270 270 263 271 277 286 258 258 250 257 264 263 249
333 333 331 328 319 109 193 237 289 108 21 299 251 234 253 196 257 288 151 211 228 250 256 227 253 275 271 282 286 277 280 289 285 288 269 289 276 272 272 252 253 252 250 256 252
331 332 333 327 53 317 275 274 168 92 62 314 281 1 8 319 310 59 18 21 22 328 288 270 279 248 269 269 277 282 291 290 290 292 287 185 281 261 267 266 249 250 248 249 251
333 331 333 310 276 330 252 341 239 60 59 315 15 81 311 16 295 13 41 1 326 302 334 284 311 287 263 261 356 301 309 299 304 297 295 231 267 277 221 255 249 250 249 244 246
333 334 336 97 240 241 303 305 56 45 350 15 68 342 4 353 356 315 5 45 360 327 259 288 289 243 274 68 93 23 358 310 239 150 257 198 218 267 256 256 250 240 237 243 238
334 330 301 303 247 309 344 42 46 71 336 346 340 335 320 357 345 1 358 343 294 6 332 327 319 324 68 350 302 38 10 319 298 254 256 185 242 263 272 291 262 245 237 244 242
331 322 206 222 255 13 38 48 63 357 65 295 322 312 348 358 329 353 342 325 117 193 293 323 326 358 323 302 280 261 182 179 269 236 293 69 247 252 222 245 265 244 238 235 245
326 332 312 262 229 95 64 50 225 322 323 297 318 285 257 328 292 333 320 277 246 170 180 295 267 302 292 282 244 276 163 225 253 259 254 235 275 285 255 259 282 271 222 232 258
331 335 291 304 113 61 68 264 319 294 309 260 278 271 310 323 319 328 307 258 278 150 155 235 289 284 305 328 263 199 189 345 187 255 247 256 243 237 283 277 304 315 281 262 271
18 17 282 318 75 51 108 240 289 318 318 274 252 261 259 291 284 279 255 291 285 205 197 186 213 278 302 219 222 327 203 178 210 228 262 288 245 216 213 224 259 269 266 274 286
351 356 308 21 51 16 350 316 311 315 318 318 276 256 265 297 285 300 277 278 301 251 253 269 260 271 257 273 277 256 262 237 237 222 221 260 261 201 192 245 297 293 301 289 278
341 275 317 64 62 327 300 309 289 326 315 330 294 259 287 277 314 266 296 272 308 164 202 186 229 293 318 350 15 113 156 231 239 234 237 264 263 325 345 331 336 338 346 327 323
16 353 332 23 106 286 311 290 313 314 303 345 300 352 324 304 273 282 296 289 295 272 295 143 246 230 254 278 286 286 281 275 265 245 268 247 276 267 286 318 326 321 319 317 309
63 292 138 313 317 315 293 289 332 333 237 308 320 328 316 308 319 260 303 312 316 42 69 153 241 233 246 265 275 270 272 266 276 267 266 286 272 300 291 288 298 302 304 311 310
46 15 338 276 292 300 329 302 321 317 328 300 317 318 306 275 246 306 305 307 286 55 181 185 271 257 275 277 270 269 218 242 274 272 265 263 270 298 323 312 306 305 305 302 301
311 346 120 257 278 310 273 329 310 316 308 328 308 315 297 272 309 279 275 276 225 202 186 247 297 293 283 298 305 276 146 333 283 290 275 268 273 323 319 307 295 291 285 283 287